Regional Weather Roundup
Issued by NWS Newport/Morehead, NC

Current Version | Previous Version | Graphics & Text | Print | Product List | Glossary Off
Versions: 1 2 3 4 5 6 7 8 9 10 11 12 13 14 15 16 17 18 19 20 21 22 23 24 25 26 27 28 29 30 31 32 33 34 35 36 37 38 39 40 41 42 43 44 45 46 47 48 49 50

000
ASUS42 KMHX 180113
RWRMHX
WEATHER ROUNDUP FOR EASTERN NORTH CAROLINA
NATIONAL WEATHER SERVICE NEWPORT/MOREHEAD CITY NC
800 PM EST SUN DEC 17 2017

NOTE: "FAIR" INDICATES FEW OR NO CLOUDS BELOW 12,000 FEET
WITH NO SIGNIFICANT WEATHER AND/OR OBSTRUCTIONS TO VISIBILITY

NCZ015>017-031-032-045>047-102-103-180200-
NORTH COAST

CITY           SKY/WX    TMP DP  RH WIND       PRES   REMARKS
EDENTON        DRIZZLE   46  44  91 CALM      30.26R
ELIZABETH CITY LGT RAIN  45  44  97 CALM      30.26R
KITTY HAWK     CLOUDY    46  35  67 CALM      30.24R
MANTEO         CLOUDY    46  37  69 CALM      30.26R

$$

NCZ045>047-081-094-103-104-180200-
CENTRAL COAST

CITY           SKY/WX    TMP DP  RH WIND       PRES   REMARKS
FRISCO         LGT RAIN  48  44  86 W3        30.24R

$$

NCZ095-097-098-100-101-180200-
SOUTHERN COAST

CITY           SKY/WX    TMP DP  RH WIND       PRES   REMARKS
BEAUFORT       LGT RAIN  49  44  83 E3        30.23R
CEDAR ISLAND   NOT AVBL
JACKSONVILLE   LGT RAIN  50  44  80 CALM      30.23R
PINEY ISLAND   LGT RAIN N/A N/A N/A E5        30.23S
WILMINGTON     CLOUDY    55  47  74 SW3       30.23R


$$

NCZ011>013-027>030-043-044-078>080-089-090>093-098-180200-
COASTAL PLAIN

CITY           SKY/WX    TMP DP  RH WIND       PRES   REMARKS
AHOSKIE        LGT RAIN  41  41  97 CALM      30.25R
CLINTON        CLOUDY    51  40  64 CALM      30.22S
ELIZABETHTOWN  NOT AVBL
GOLDSBORO      CLOUDY    50  39  66 CALM      30.22R
GREENVILLE     LGT RAIN  48  37  66 CALM      30.25R
HAVELOCK       CLOUDY    50  45  83 CALM      30.24R
KENANSVILLE    CLOUDY    50  41  71 CALM      30.23R
KINSTON        CLOUDY    48  41  76 N3        30.25R
NEW BERN       CLOUDY    48  45  89 CALM      30.25R
RICHLANDS      LGT RAIN  50  45  83 CALM      30.25R
ROCKY MOUNT    CLOUDY    45  43  93 CALM      30.23S
WASHINGTON     CLOUDY    47  39  72 CALM      30.25R
WHITEVILLE     CLOUDY    53  44  69 CALM      30.21S

$$

AMZ130-135-150-152-154-156-158-170-250-252-270-ANZ085-086-088-633-658-670-180200-
MARINE OBSERVATIONS

STATION/POSITION TIME  TEMP    WIND        PRES    WAVE   SWELL
                       AIR SEA DIR/SP/G            HT/PER HT/PER
                 (UTC) (F)     (DEG/KT/KT) (MB)    (FT/S) (FT/S)
CHESAPEAKE LIGHT NOT AVBL
64 E VA BEACH    0050   54 59  230/ 12/ 14 1023.7    2/ 3
DUCK             0048   48 52  190/  4/  5 1023.3
2 E DUCK         0100      54                N/A     1/10
OREGON INLET     0048          210/  4/  5   N/A
13E OREGON INLT  0048      59                N/A     1/10   2/10
HATTERAS CG      0048   50 53  260/  4/  5 1023.8
DIAMOND BUOY     0050   60 72  330/  6/ 10 1024.1    2/11   2/11
CAPE LOOKOUT     0000           CALM  /  1 1023.6
BEAUFORT LAB     0048   51 50   70/  2/  4 1023.5
30 SE NEW RVR IN 0008   59 64  240/  4/  4 1023.4
30 SE NEW RVR IN 0100      64                N/A     1/ 8
27 SE WRIGHTSVLE 0008   57 61  230/  4/  6 1023.2
5 SE WRIGHTSVLE  0008   55 56  210/  6/  8 1022.8
225 S CAPE HAT   2350   67 74  200/  6/  8 1025.0    2/10   2/10
41 SE CHARLESTON 0050   66 73  180/  6/  8 1022.7    2/10   2/10

$$




USA.gov is the U.S. government's official web portal to all federal, state and local government web resources and services.